Location: Newark
(42.8481°N, 0.4872°E)
Time: 14:05:17
(UTC+00:00)

SR - All Passes

Search period start: 31 October 2020 00:00
Search period end: 10 November 2020 00:00
Orbit: 581 x 874 km, 66.7° (Epoch: 30 October)

Date Brightness Start Highest point End Pass type
(mag) Time Alt. Az. Time Alt. Az. Time Alt. Az.
31 Oct - 00:04:19 10° SE 00:05:52 12° ESE 00:07:26 10° E night (unlit)
31 Oct - 01:43:01 10° SW 01:47:13 66° WNW 01:51:36 10° NNE night (unlit)
31 Oct - 03:29:16 10° NW 03:30:13 11° NW 03:31:10 10° NNW visible
31 Oct - 08:40:48 10° N 08:44:15 18° NE 08:47:54 10° E daylight
31 Oct - 10:21:46 10° NNW 10:26:50 80° WSW 10:32:19 10° SSE daylight
31 Oct - 12:07:03 10° W 12:08:12 11° WSW 12:09:24 10° WSW daylight
01 Nov - 00:53:25 10° SSW 00:57:33 55° ESE 01:01:50 10° NE night (unlit)
01 Nov - 02:36:56 10° W 02:39:57 18° NW 02:43:04 10° N visible
01 Nov - 07:52:32 10° NNE 07:54:00 11° NE 07:55:29 10° NE daylight
01 Nov - 09:32:08 10° NNW 09:37:04 54° NE 09:42:25 10° SE daylight
01 Nov - 11:14:53 10° WNW 11:18:51 22° WSW 11:23:01 10° SSW daylight
02 Nov - 00:04:37 10° SSE 00:08:04 25° ESE 00:11:36 10° NE night (unlit)
02 Nov - 01:46:01 10° WSW 01:49:54 33° NW 01:53:56 10° NNE night (unlit)
02 Nov - 08:42:45 10° NNW 08:47:10 30° NE 08:51:52 10° ESE daylight
02 Nov - 10:24:29 10° NW 10:29:20 44° WSW 10:34:33 10° S daylight
02 Nov - 23:17:40 10° ESE 23:18:45 11° ESE 23:19:50 10° E night (unlit)
03 Nov - 00:55:50 10° SW 01:00:02 71° WNW 01:04:27 10° NNE night (unlit)
03 Nov - 02:41:37 10° NW 02:42:59 11° NW 02:44:23 10° NNW visible
03 Nov - 07:53:42 10° N 07:57:05 18° NE 08:00:37 10° E daylight
03 Nov - 09:34:35 10° NNW 09:39:41 85° WSW 09:45:13 10° SSE daylight
03 Nov - 11:19:18 10° W 11:21:06 12° WSW 11:22:57 10° SW daylight
04 Nov - 00:06:18 10° SSW 00:10:24 51° ESE 00:14:39 10° NE night (unlit)
04 Nov - 01:49:36 10° W 01:52:44 19° NW 01:56:00 10° N night (unlit)
04 Nov - 07:05:37 10° NNE 07:06:47 11° NE 07:07:58 10° NE daylight
04 Nov - 08:45:00 10° NNW 08:49:55 51° NE 08:55:15 10° SE daylight
04 Nov - 10:27:37 10° WNW 10:31:44 24° WSW 10:36:05 10° SSW daylight
04 Nov - 23:17:36 10° SSE 23:20:56 23° ESE 23:24:21 10° ENE night (unlit)
05 Nov - 00:58:46 10° WSW 01:02:42 36° NW 01:06:49 10° NNE night (unlit)
05 Nov - 07:55:38 10° N 08:00:00 29° NE 08:04:39 10° ESE daylight
05 Nov - 09:37:17 10° NW 09:42:13 47° WSW 09:47:30 10° S daylight
06 Nov - 00:08:39 10° SW 00:12:52 77° WNW 00:17:19 10° NNE night (unlit)
06 Nov - 01:54:05 10° WNW 01:55:46 12° NW 01:57:30 10° NNW night (unlit)
06 Nov - 07:06:36 10° N 07:09:53 17° NE 07:13:19 10° E daylight
06 Nov - 08:47:25 10° NNW 08:52:33 90° W 08:58:06 10° SSE daylight
06 Nov - 10:31:44 10° W 10:34:00 13° WSW 10:36:20 10° SW daylight
06 Nov - 23:19:11 10° S 23:23:14 47° ESE 23:27:28 10° NE night (unlit)
07 Nov - 01:02:16 10° W 01:05:32 21° NW 01:08:56 10° N night (unlit)
07 Nov - 06:18:48 10° NNE 06:19:34 10° NE 06:20:21 10° NE daylight
07 Nov - 07:57:50 10° NNW 08:02:46 48° NE 08:08:05 10° SE daylight
07 Nov - 09:40:21 10° NW 09:44:37 26° WSW 09:49:07 10° SSW daylight
07 Nov - 22:30:35 10° SSE 22:33:48 21° ESE 22:37:06 10° ENE night (unlit)
08 Nov - 00:11:32 10° WSW 00:15:31 38° NW 00:19:43 10° NNE night (unlit)
08 Nov - 07:08:30 10° N 07:12:49 27° NE 07:17:25 10° ESE daylight
08 Nov - 08:50:05 10° NW 08:55:05 50° WSW 09:00:27 10° S daylight
08 Nov - 23:21:28 10° SSW 23:25:42 82° WNW 23:30:09 10° NNE night (unlit)
09 Nov - 01:06:35 10° WNW 01:08:33 13° NW 01:10:33 10° N night (unlit)
09 Nov - 06:19:30 10° N 06:22:41 16° NE 06:26:01 10° E daylight
09 Nov - 08:00:15 10° NNW 08:05:25 85° ENE 08:11:00 10° SSE daylight
09 Nov - 09:44:16 10° WNW 09:46:54 14° WSW 09:49:37 10° SW daylight
09 Nov - 22:32:04 10° S 22:36:05 44° ESE 22:40:17 10° NE night (unlit)
